QPF
0.00 0.00 0.00 0.00 0.00 0.00 0.00 0.01 0.01 0.01 0.01 0.00 0.00 0.00 0.01 0.02 0.03 0.06 0.08 0.08 0.10 0.12 0.14 0.17 0.21 0.27 0.38 0.31 0.18 0.10 0.04 0.05 0.13 0.12 0.12 0.03 0.00 0.00 0.00 0.00 0.00 0.00 0.00
0.00 0.00 0.00 0.00 0.00 0.00 0.00 0.00 0.01 0.00 0.00 0.00 0.01 0.01 0.01 0.03 0.04 0.07 0.08 0.09 0.12 0.14 0.13 0.13 0.18 0.31 0.45 0.48 0.45 0.37 0.24 0.17 0.22 0.20 0.10 0.03 0.01 0.00 0.00 0.00 0.00 0.00 0.00
0.00 0.00 0.00 0.00 0.00 0.00 0.00 0.00 0.01 0.01 0.00 0.00 0.00 0.01 0.01 0.02 0.03 0.05 0.09 0.10 0.12 0.17 0.21 0.20 0.18 0.25 0.38 0.46 0.46 0.41 0.33 0.27 0.30 0.27 0.15 0.05 0.03 0.01 0.00 0.00 0.00 0.00 0.00
0.01 0.01 0.01 0.00 0.00 0.00 0.00 0.00 0.00 0.01 0.00 0.00 0.01 0.04 0.03 0.02 0.03 0.05 0.04 0.03 0.04 0.09 0.14 0.18 0.20 0.19 0.23 0.26 0.30 0.31 0.36 0.37 0.37 0.36 0.26 0.09 0.09 0.04 0.00 0.00 0.00 0.00 0.00
0.03 0.03 0.01 0.00 0.00 0.00 0.00 0.00 0.00 0.00 0.00 0.00 0.00 0.03 0.06 0.07 0.07 0.10 0.06 0.02 0.02 0.03 0.05 0.06 0.10 0.12 0.12 0.14 0.17 0.27 0.39 0.42 0.39 0.37 0.33 0.14 0.06 0.03 0.00 0.00 0.00 0.00 0.00
0.04 0.04 0.01 0.01 0.01 0.00 0.00 0.00 0.00 0.00 0.00 0.01 0.00 0.00 0.02 0.02 0.05 0.07 0.03 0.01 0.01 0.02 0.04 0.04 0.05 0.05 0.06 0.05 0.04 0.07 0.19 0.27 0.29 0.28 0.28 0.17 0.08 0.04 0.01 0.00 0.00 0.00 0.00
0.03 0.04 0.02 0.03 0.03 0.02 0.02 0.02 0.01 0.01 0.00 0.00 0.01 0.02 0.02 0.03 0.03 0.02 0.00 0.01 0.01 0.01 0.01 0.02 0.02 0.01 0.02 0.02 0.02 0.02 0.02 0.04 0.11 0.20 0.23 0.24 0.30 0.21 0.08 0.01 0.00 0.00 0.00
0.04 0.07 0.07 0.07 0.06 0.08 0.09 0.08 0.08 0.06 0.05 0.03 0.06 0.09 0.13 0.09 0.04 0.04 0.01 0.01 0.01 0.00 0.00 0.00 0.01 0.01 0.01 0.01 0.02 0.03 0.04 0.08 0.10 0.10 0.14 0.26 0.34 0.39 0.26 0.10 0.04 0.01 0.01
0.02 0.03 0.05 0.06 0.08 0.11 0.11 0.13 0.19 0.20 0.18 0.19 0.25 0.24 0.21 0.12 0.06 0.07 0.04 0.01 0.01 0.01 0.00 0.01 0.01 0.01 0.01 0.01 0.02 0.03 0.07 0.14 0.14 0.17 0.21 0.22 0.22 0.24 0.24 0.16 0.08 0.03 0.01
0.00 0.00 0.00 0.01 0.02 0.05 0.07 0.09 0.14 0.18 0.22 0.28 0.27 0.19 0.15 0.19 0.18 0.13 0.10 0.03 0.03 0.03 0.02 0.02 0.02 0.02 0.02 0.01 0.01 0.03 0.05 0.07 0.09 0.11 0.11 0.10 0.10 0.10 0.11 0.09 0.08 0.05 0.03
0.00 0.00 0.00 0.00 0.00 0.00 0.01 0.02 0.04 0.08 0.11 0.12 0.12 0.11 0.14 0.27 0.28 0.17 0.11 0.05 0.05 0.06 0.05 0.05 0.05 0.05 0.02 0.02 0.01 0.02 0.03 0.03 0.03 0.03 0.05 0.06 0.05 0.05 0.05 0.07 0.07 0.04 0.04
0.00 0.00 0.00 0.00 0.00 0.00 0.00 0.00 0.01 0.02 0.03 0.04 0.06 0.08 0.12 0.18 0.20 0.15 0.06 0.05 0.08 0.14 0.16 0.15 0.12 0.11 0.04 0.01 0.00 0.00 0.00 0.00 0.01 0.02 0.03 0.05 0.08 0.09 0.09 0.11 0.11 0.07 0.04
0.00 0.00 0.00 0.00 0.00 0.00 0.01 0.01 0.01 0.02 0.03 0.04 0.06 0.09 0.12 0.16 0.16 0.12 0.06 0.05 0.09 0.17 0.20 0.20 0.17 0.10 0.03 0.01 0.00 0.00 0.00 0.00 0.01 0.02 0.03 0.05 0.06 0.09 0.14 0.18 0.21 0.20 0.17
0.00 0.00 0.00 0.00 0.00 0.00 0.01 0.01 0.01 0.02 0.03 0.06 0.10 0.13 0.15 0.17 0.18 0.17 0.16 0.12 0.12 0.13 0.14 0.13 0.09 0.04 0.02 0.01 0.01 0.00 0.01 0.02 0.01 0.01 0.01 0.02 0.03 0.04 0.06 0.11 0.19 0.25 0.27
0.00 0.00 0.00 0.00 0.00 0.00 0.01 0.01 0.01 0.01 0.03 0.08 0.10 0.12 0.12 0.13 0.12 0.13 0.20 0.24 0.29 0.33 0.26 0.12 0.08 0.06 0.04 0.02 0.01 0.01 0.02 0.02 0.01 0.01 0.01 0.02 0.03 0.03 0.03 0.04 0.07 0.11 0.16
0.00 0.00 0.00 0.01 0.01 0.00 0.00 0.00 0.00 0.00 0.01 0.02 0.04 0.05 0.09 0.10 0.06 0.03 0.08 0.18 0.29 0.37 0.39 0.32 0.29 0.27 0.23 0.14 0.04 0.01 0.01 0.01 0.02 0.02 0.02 0.02 0.02 0.03 0.04 0.05 0.05 0.07 0.09
0.00 0.00 0.00 0.00 0.01 0.01 0.01 0.03 0.05 0.03 0.01 0.00 0.01 0.03 0.07 0.09 0.05 0.04 0.05 0.09 0.15 0.24 0.37 0.37 0.32 0.25 0.17 0.12 0.06 0.02 0.03 0.04 0.03 0.03 0.03 0.03 0.03 0.03 0.03 0.03 0.03 0.03 0.05
0.00 0.00 0.00 0.01 0.01 0.01 0.01 0.05 0.13 0.17 0.12 0.03 0.00 0.01 0.06 0.10 0.10 0.11 0.09 0.11 0.14 0.19 0.21 0.17 0.11 0.07 0.04 0.02 0.01 0.01 0.01 0.03 0.04 0.04 0.03 0.03 0.02 0.01 0.01 0.01 0.01 0.01 0.02
0.00 0.00 0.02 0.04 0.02 0.01 0.02 0.09 0.13 0.05 0.03 0.04 0.03 0.01 0.01 0.03 0.04 0.05 0.08 0.12 0.08 0.06 0.05 0.03 0.01 0.01 0.00 0.00 0.00 0.00 0.00 0.00 0.00 0.00 0.00 0.00 0.01 0.01 0.01 0.01 0.01 0.03 0.02
0.00 0.00 0.01 0.06 0.06 0.02 0.04 0.07 0.05 0.03 0.03 0.05 0.04 0.02 0.01 0.01 0.03 0.04 0.05 0.05 0.04 0.05 0.05 0.03 0.02 0.01 0.01 0.00 0.01 0.01 0.01 0.01 0.01 0.01 0.01 0.01 0.01 0.01 0.02 0.02 0.01 0.01 0.02
0.00 0.00 0.00 0.02 0.05 0.03 0.03 0.04 0.02 0.02 0.03 0.03 0.02 0.01 0.01 0.04 0.04 0.04 0.03 0.02 0.02 0.03 0.04 0.04 0.03 0.01 0.01 0.01 0.01 0.02 0.02 0.02 0.03 0.02 0.02 0.02 0.01 0.01 0.01 0.01 0.01 0.01 0.01
0.00 0.00 0.00 0.03 0.03 0.02 0.01 0.03 0.04 0.02 0.01 0.02 0.02 0.01 0.02 0.06 0.04 0.02 0.01 0.01 0.01 0.02 0.05 0.06 0.05 0.05 0.02 0.01 0.01 0.01 0.01 0.01 0.02 0.02 0.02 0.02 0.02 0.01 0.01 0.01 0.01 0.01 0.01
0.00 0.00 0.00 0.02 0.03 0.01 0.00 0.01 0.04 0.05 0.02 0.03 0.03 0.02 0.02 0.04 0.05 0.05 0.04 0.03 0.05 0.08 0.05 0.03 0.04 0.04 0.02 0.01 0.01 0.00 0.01 0.01 0.01 0.01 0.01 0.01 0.01 0.01 0.01 0.01 0.01 0.01 0.03
0.00 0.00 0.00 0.01 0.03 0.02 0.01 0.02 0.02 0.02 0.03 0.05 0.05 0.04 0.04 0.05 0.07 0.05 0.04 0.07 0.08 0.07 0.05 0.02 0.01 0.01 0.01 0.00 0.00 0.00 0.00 0.01 0.01 0.01 0.01 0.01 0.02 0.02 0.01 0.02 0.04 0.06 0.10
0.00 0.00 0.00 0.01 0.03 0.02 0.02 0.02 0.01 0.00 0.02 0.05 0.03 0.03 0.02 0.02 0.02 0.02 0.01 0.03 0.04 0.02 0.02 0.01 0.01 0.01 0.00 0.00 0.00 0.00 0.01 0.02 0.03 0.02 0.02 0.02 0.03 0.04 0.04 0.06 0.10 0.13 0.17
0.00 0.00 0.00 0.00 0.01 0.01 0.01 0.01 0.01 0.01 0.02 0.02 0.01 0.02 0.02 0.01 0.02 0.01 0.01 0.01 0.01 0.01 0.01 0.00 0.00 0.00 0.00 0.00 0.00 0.00 0.01 0.02 0.03 0.03 0.02 0.02 0.03 0.04 0.05 0.07 0.08 0.10 0.15
MSLP
1007.45 1007.76 1008.11 1008.45 1008.77 1009.03 1009.23 1009.39 1009.53 1009.67 1009.86 1010.09 1010.38 1010.72 1011.06 1011.39 1011.67 1011.90 1012.05 1012.14 1012.20 1012.25 1012.34 1012.48 1012.68 1012.95 1013.26 1013.59 1013.92 1014.23 1014.50 1014.73 1014.94 1015.13 1015.34 1015.57 1015.85 1016.16 1016.50 1016.85 1017.19 1017.51 1017.78
1006.98 1007.34 1007.74 1008.12 1008.47 1008.75 1008.97 1009.14 1009.28 1009.42 1009.60 1009.84 1010.14 1010.48 1010.85 1011.21 1011.53 1011.79 1011.98 1012.10 1012.18 1012.24 1012.31 1012.42 1012.59 1012.82 1013.10 1013.42 1013.75 1014.06 1014.35 1014.61 1014.83 1015.03 1015.22 1015.43 1015.67 1015.94 1016.24 1016.56 1016.90 1017.22 1017.51
1006.55 1006.96 1007.39 1007.81 1008.17 1008.47 1008.69 1008.85 1008.98 1009.11 1009.28 1009.50 1009.80 1010.16 1010.55 1010.95 1011.32 1011.64 1011.88 1012.06 1012.17 1012.25 1012.32 1012.42 1012.56 1012.76 1013.02 1013.31 1013.63 1013.95 1014.25 1014.51 1014.75 1014.95 1015.13 1015.31 1015.51 1015.73 1015.98 1016.26 1016.56 1016.87 1017.17
1006.24 1006.67 1007.12 1007.54 1007.90 1008.19 1008.40 1008.54 1008.65 1008.75 1008.90 1009.10 1009.39 1009.75 1010.16 1010.60 1011.02 1011.39 1011.69 1011.92 1012.08 1012.19 1012.27 1012.36 1012.49 1012.66 1012.89 1013.16 1013.46 1013.78 1014.08 1014.35 1014.59 1014.79 1014.97 1015.12 1015.28 1015.45 1015.65 1015.89 1016.16 1016.45 1016.75
1006.12 1006.54 1006.97 1007.37 1007.71 1007.96 1008.14 1008.25 1008.32 1008.39 1008.50 1008.68 1008.95 1009.30 1009.72 1010.17 1010.62 1011.03 1011.38 1011.66 1011.85 1011.98 1012.08 1012.17 1012.28 1012.42 1012.62 1012.87 1013.15 1013.46 1013.76 1014.04 1014.28 1014.49 1014.65 1014.79 1014.92 1015.06 1015.22 1015.42 1015.66 1015.93 1016.24
1006.22 1006.60 1006.98 1007.33 1007.61 1007.82 1007.95 1008.02 1008.06 1008.09 1008.17 1008.31 1008.55 1008.87 1009.26 1009.71 1010.16 1010.59 1010.96 1011.25 1011.47 1011.61 1011.71 1011.80 1011.89 1012.01 1012.18 1012.40 1012.67 1012.96 1013.25 1013.53 1013.78 1013.99 1014.16 1014.29 1014.41 1014.53 1014.67 1014.85 1015.07 1015.33 1015.64
1006.57 1006.87 1007.17 1007.44 1007.66 1007.81 1007.89 1007.92 1007.91 1007.91 1007.95 1008.05 1008.24 1008.52 1008.87 1009.28 1009.70 1010.10 1010.46 1010.75 1010.96 1011.11 1011.20 1011.28 1011.35 1011.45 1011.60 1011.79 1012.03 1012.30 1012.59 1012.86 1013.11 1013.33 1013.51 1013.65 1013.78 1013.90 1014.03 1014.20 1014.41 1014.68 1014.99
1007.12 1007.32 1007.52 1007.70 1007.85 1007.94 1007.97 1007.97 1007.93 1007.90 1007.91 1007.97 1008.11 1008.32 1008.61 1008.95 1009.30 1009.65 1009.96 1010.22 1010.41 1010.54 1010.62 1010.68 1010.74 1010.83 1010.95 1011.13 1011.35 1011.60 1011.87 1012.14 1012.39 1012.62 1012.80 1012.96 1013.10 1013.23 1013.38 1013.56 1013.77 1014.04 1014.35
1007.77 1007.87 1007.97 1008.07 1008.15 1008.19 1008.20 1008.17 1008.12 1008.07 1008.05 1008.07 1008.16 1008.31 1008.51 1008.76 1009.04 1009.30 1009.55 1009.75 1009.90 1010.00 1010.07 1010.12 1010.18 1010.26 1010.38 1010.54 1010.75 1010.99 1011.24 1011.50 1011.75 1011.98 1012.17 1012.35 1012.50 1012.65 1012.81 1013.00 1013.22 1013.49 1013.80
1008.43 1008.43 1008.45 1008.49 1008.51 1008.53 1008.52 1008.49 1008.45 1008.40 1008.37 1008.36 1008.39 1008.47 1008.60 1008.75 1008.92 1009.10 1009.26 1009.39 1009.50 1009.58 1009.64 1009.70 1009.76 1009.86 1009.98 1010.15 1010.35 1010.58 1010.83 1011.08 1011.32 1011.54 1011.73 1011.91 1012.08 1012.24 1012.42 1012.61 1012.83 1013.09 1013.38
1008.99 1008.93 1008.90 1008.89 1008.89 1008.90 1008.90 1008.89 1008.86 1008.83 1008.80 1008.78 1008.77 1008.79 1008.83 1008.89 1008.96 1009.04 1009.12 1009.20 1009.26 1009.32 1009.38 1009.46 1009.55 1009.67 1009.82 1010.01 1010.22 1010.45 1010.69 1010.92 1011.15 1011.35 1011.54 1011.72 1011.88 1012.05 1012.22 1012.41 1012.63 1012.86 1013.12
1009.39 1009.30 1009.25 1009.23 1009.23 1009.25 1009.28 1009.30 1009.31 1009.31 1009.28 1009.25 1009.22 1009.18 1009.16 1009.13 1009.12 1009.12 1009.13 1009.15 1009.18 1009.23 1009.30 1009.40 1009.53 1009.70 1009.89 1010.10 1010.33 1010.57 1010.80 1011.02 1011.23 1011.41 1011.58 1011.74 1011.89 1012.05 1012.21 1012.39 1012.58 1012.78 1013.00
1009.63 1009.54 1009.49 1009.49 1009.51 1009.56 1009.63 1009.69 1009.73 1009.76 1009.76 1009.73 1009.68 1009.60 1009.52 1009.44 1009.35 1009.28 1009.23 1009.20 1009.21 1009.26 1009.35 1009.49 1009.66 1009.87 1010.11 1010.36 1010.61 1010.86 1011.09 1011.29 1011.47 1011.63 1011.77 1011.90 1012.03 1012.16 1012.30 1012.46 1012.62 1012.79 1012.96
1009.73 1009.67 1009.65 1009.67 1009.73 1009.82 1009.92 1010.01 1010.09 1010.15 1010.17 1010.15 1010.09 1009.99 1009.87 1009.74 1009.60 1009.48 1009.38 1009.32 1009.31 1009.36 1009.47 1009.64 1009.85 1010.11 1010.38 1010.66 1010.94 1011.19 1011.41 1011.60 1011.75 1011.88 1011.98 1012.08 1012.18 1012.28 1012.40 1012.53 1012.66 1012.80 1012.92
1009.75 1009.74 1009.76 1009.81 1009.90 1010.01 1010.14 1010.26 1010.37 1010.45 1010.48 1010.48 1010.42 1010.31 1010.17 1010.01 1009.84 1009.68 1009.55 1009.47 1009.45 1009.50 1009.61 1009.80 1010.04 1010.32 1010.62 1010.92 1011.20 1011.45 1011.66 1011.83 1011.95 1012.04 1012.11 1012.18 1012.24 1012.32 1012.41 1012.52 1012.63 1012.74 1012.84
1009.75 1009.78 1009.84 1009.93 1010.04 1010.17 1010.31 1010.44 1010.56 1010.65 1010.70 1010.71 1010.66 1010.56 1010.42 1010.24 1010.06 1009.88 1009.73 1009.64 1009.60 1009.64 1009.75 1009.93 1010.17 1010.46 1010.76 1011.06 1011.33 1011.57 1011.76 1011.90 1011.99 1012.05 1012.09 1012.12 1012.16 1012.21 1012.29 1012.37 1012.47 1012.57 1012.65
1009.75 1009.83 1009.93 1010.03 1010.16 1010.29 1010.43 1010.56 1010.68 1010.78 1010.84 1010.86 1010.83 1010.74 1010.62 1010.45 1010.28 1010.10 1009.94 1009.83 1009.78 1009.80 1009.89 1010.06 1010.28 1010.54 1010.82 1011.10 1011.35 1011.56 1011.72 1011.82 1011.88 1011.91 1011.92 1011.92 1011.94 1011.97 1012.03 1012.11 1012.20 1012.30 1012.38
1009.78 1009.90 1010.01 1010.13 1010.26 1010.38 1010.51 1010.64 1010.75 1010.85 1010.92 1010.96 1010.95 1010.90 1010.80 1010.67 1010.51 1010.35 1010.20 1010.08 1010.02 1010.02 1010.09 1010.22 1010.41 1010.63 1010.87 1011.10 1011.31 1011.48 1011.60 1011.67 1011.69 1011.69 1011.67 1011.65 1011.65 1011.67 1011.72 1011.79 1011.88 1011.97 1012.05
1009.79 1009.95 1010.09 1010.21 1010.33 1010.45 1010.56 1010.68 1010.79 1010.89 1010.98 1011.04 1011.06 1011.05 1011.00 1010.91 1010.79 1010.66 1010.53 1010.42 1010.35 1010.34 1010.38 1010.47 1010.61 1010.79 1010.98 1011.16 1011.31 1011.43 1011.50 1011.53 1011.52 1011.48 1011.44 1011.40 1011.38 1011.38 1011.42 1011.48 1011.57 1011.66 1011.74
1009.78 1009.96 1010.12 1010.25 1010.37 1010.48 1010.59 1010.69 1010.80 1010.91 1011.02 1011.11 1011.18 1011.21 1011.21 1011.18 1011.11 1011.02 1010.93 1010.85 1010.79 1010.77 1010.79 1010.85 1010.95 1011.07 1011.21 1011.33 1011.43 1011.50 1011.52 1011.51 1011.46 1011.39 1011.32 1011.25 1011.21 1011.20 1011.22 1011.26 1011.33 1011.40 1011.47
1009.71 1009.92 1010.10 1010.25 1010.38 1010.49 1010.60 1010.71 1010.82 1010.95 1011.07 1011.20 1011.31 1011.39 1011.45 1011.48 1011.47 1011.44 1011.39 1011.34 1011.31 1011.29 1011.30 1011.34 1011.41 1011.49 1011.57 1011.65 1011.69 1011.71 1011.69 1011.63 1011.55 1011.45 1011.34 1011.25 1011.18 1011.14 1011.14 1011.16 1011.20 1011.24 1011.29
1009.59 1009.84 1010.05 1010.23 1010.37 1010.50 1010.62 1010.74 1010.87 1011.01 1011.15 1011.31 1011.45 1011.59 1011.70 1011.78 1011.83 1011.86 1011.87 1011.86 1011.86 1011.86 1011.88 1011.91 1011.95 1012.00 1012.05 1012.08 1012.08 1012.05 1011.99 1011.89 1011.77 1011.64 1011.50 1011.38 1011.28 1011.21 1011.17 1011.16 1011.16 1011.17 1011.18
1009.46 1009.74 1009.99 1010.20 1010.38 1010.53 1010.67 1010.81 1010.95 1011.11 1011.27 1011.45 1011.62 1011.79 1011.94 1012.07 1012.17 1012.25 1012.31 1012.35 1012.38 1012.41 1012.44 1012.48 1012.51 1012.54 1012.56 1012.56 1012.53 1012.46 1012.36 1012.22 1012.07 1011.90 1011.73 1011.58 1011.45 1011.34 1011.26 1011.21 1011.18 1011.15 1011.12
1009.34 1009.67 1009.96 1010.22 1010.43 1010.62 1010.78 1010.94 1011.09 1011.25 1011.43 1011.61 1011.80 1011.98 1012.16 1012.32 1012.46 1012.58 1012.68 1012.76 1012.83 1012.89 1012.94 1012.99 1013.02 1013.04 1013.04 1013.01 1012.94 1012.84 1012.70 1012.54 1012.35 1012.15 1011.95 1011.77 1011.60 1011.46 1011.35 1011.27 1011.20 1011.14 1011.07
1009.29 1009.66 1010.00 1010.29 1010.55 1010.76 1010.95 1011.12 1011.28 1011.45 1011.62 1011.80 1011.98 1012.17 1012.36 1012.54 1012.70 1012.85 1012.98 1013.10 1013.20 1013.28 1013.35 1013.40 1013.43 1013.44 1013.42 1013.36 1013.27 1013.14 1012.97 1012.77 1012.56 1012.33 1012.10 1011.89 1011.70 1011.54 1011.40 1011.29 1011.20 1011.12 1011.04
1009.30 1009.71 1010.09 1010.42 1010.71 1010.96 1011.17 1011.35 1011.51 1011.67 1011.83 1012.00 1012.18 1012.36 1012.54 1012.73 1012.91 1013.08 1013.23 1013.37 1013.49 1013.59 1013.67 1013.73 1013.76 1013.75 1013.71 1013.63 1013.51 1013.35 1013.15 1012.92 1012.67 1012.42 1012.17 1011.94 1011.74 1011.56 1011.41 1011.29 1011.19 1011.10 1011.02
Thickness
5731 5728 5721 5717 5714 5710 5705 5702 5698 5695 5693 5690 5687 5686 5686 5683 5682 5681 5680 5681 5681 5681 5681 5681 5683 5687 5686 5687 5692 5697 5699 5698 5692 5695 5698 5699 5696 5694 5692 5692 5691 5691 5691
5728 5724 5718 5713 5709 5706 5703 5699 5695 5692 5691 5689 5687 5685 5684 5681 5680 5678 5676 5677 5677 5676 5675 5674 5674 5678 5677 5677 5682 5687 5691 5693 5690 5688 5690 5692 5693 5692 5689 5689 5690 5691 5690
5724 5719 5713 5709 5705 5702 5701 5698 5693 5690 5688 5687 5686 5684 5682 5679 5677 5675 5674 5673 5673 5672 5670 5668 5667 5668 5668 5668 5673 5678 5682 5685 5686 5685 5685 5687 5689 5690 5686 5686 5687 5688 5689
5720 5712 5707 5705 5703 5701 5699 5696 5692 5689 5687 5685 5683 5681 5680 5677 5674 5672 5670 5668 5667 5666 5665 5663 5662 5661 5662 5663 5667 5671 5675 5676 5677 5679 5680 5681 5681 5685 5684 5680 5680 5682 5684
5716 5707 5703 5702 5701 5698 5696 5693 5690 5688 5686 5683 5680 5677 5675 5673 5672 5669 5666 5664 5662 5660 5660 5659 5659 5659 5660 5662 5665 5668 5670 5669 5670 5672 5674 5675 5675 5676 5678 5678 5676 5676 5677
5712 5706 5704 5700 5697 5695 5693 5690 5687 5684 5683 5680 5677 5673 5670 5670 5670 5667 5663 5661 5659 5657 5657 5658 5658 5659 5659 5661 5664 5667 5667 5665 5665 5668 5671 5672 5674 5675 5676 5675 5672 5669 5668
5708 5704 5701 5696 5691 5689 5688 5685 5682 5680 5677 5674 5671 5669 5666 5665 5664 5662 5659 5657 5657 5658 5659 5658 5659 5660 5660 5660 5661 5663 5664 5665 5667 5668 5670 5673 5675 5676 5673 5671 5670 5668 5668
5698 5695 5693 5690 5686 5683 5680 5678 5676 5674 5671 5668 5665 5663 5661 5659 5657 5655 5654 5652 5653 5656 5659 5660 5660 5661 5661 5660 5660 5660 5661 5665 5668 5668 5670 5674 5677 5676 5674 5672 5669 5666 5667
5684 5682 5681 5679 5676 5673 5670 5669 5667 5665 5663 5661 5660 5657 5654 5653 5651 5649 5647 5646 5647 5650 5655 5658 5660 5661 5662 5660 5658 5657 5658 5661 5664 5665 5667 5669 5671 5672 5671 5666 5662 5657 5657
5674 5672 5671 5668 5664 5661 5659 5658 5658 5657 5656 5655 5654 5652 5649 5647 5646 5643 5641 5640 5640 5644 5648 5653 5655 5656 5657 5655 5653 5654 5653 5655 5658 5659 5660 5662 5664 5665 5666 5664 5661 5656 5653
5667 5665 5661 5658 5655 5652 5650 5650 5649 5649 5649 5648 5647 5645 5643 5641 5639 5638 5636 5634 5635 5636 5640 5644 5647 5648 5648 5648 5648 5648 5648 5649 5651 5651 5652 5653 5655 5655 5656 5656 5655 5654 5651
5661 5658 5655 5651 5648 5646 5644 5643 5643 5642 5640 5639 5637 5634 5632 5631 5630 5628 5628 5627 5628 5628 5632 5637 5639 5639 5640 5641 5641 5641 5642 5641 5642 5641 5642 5643 5644 5645 5646 5646 5646 5646 5646
5656 5652 5649 5646 5641 5639 5637 5636 5635 5634 5631 5628 5625 5621 5618 5617 5616 5616 5617 5619 5620 5622 5627 5632 5631 5631 5632 5633 5634 5635 5634 5634 5634 5634 5635 5635 5636 5636 5636 5636 5636 5636 5636
5652 5648 5645 5640 5636 5633 5630 5628 5626 5622 5619 5616 5612 5608 5605 5603 5601 5603 5606 5609 5613 5616 5619 5621 5623 5623 5625 5627 5626 5626 5627 5628 5628 5627 5628 5629 5628 5627 5626 5627 5627 5626 5626
5650 5646 5641 5635 5631 5628 5623 5618 5617 5611 5608 5605 5600 5596 5592 5588 5586 5588 5594 5600 5606 5609 5612 5614 5616 5616 5619 5620 5621 5621 5621 5622 5622 5622 5623 5623 5622 5620 5619 5619 5619 5618 5617
5645 5640 5636 5632 5628 5625 5621 5615 5609 5606 5601 5598 5594 5589 5585 5581 5579 5582 5589 5596 5601 5605 5607 5609 5612 5614 5615 5615 5614 5614 5616 5616 5617 5617 5617 5617 5615 5614 5613 5612 5611 5610 5609
5642 5637 5633 5629 5625 5623 5620 5616 5610 5603 5598 5594 5592 5588 5584 5582 5581 5583 5587 5593 5597 5600 5602 5604 5607 5608 5609 5610 5609 5610 5610 5612 5612 5612 5611 5610 5609 5608 5606 5605 5603 5602 5601
5640 5634 5630 5627 5624 5622 5620 5616 5611 5606 5600 5594 5590 5587 5585 5583 5583 5585 5588 5592 5594 5596 5598 5600 5601 5602 5603 5604 5604 5605 5605 5606 5606 5606 5605 5604 5603 5600 5598 5597 5596 5595 5594
5639 5634 5629 5626 5623 5622 5619 5615 5610 5605 5600 5596 5592 5589 5587 5586 5586 5587 5590 5592 5593 5594 5595 5596 5597 5597 5597 5598 5599 5599 5599 5599 5599 5599 5597 5596 5595 5593 5591 5590 5588 5587 5585
5637 5632 5628 5625 5623 5622 5619 5615 5610 5606 5603 5599 5594 5591 5590 5589 5589 5589 5590 5591 5591 5591 5592 5591 5591 5591 5591 5592 5592 5593 5593 5593 5593 5592 5590 5589 5588 5586 5584 5582 5580 5578 5577
5642 5635 5630 5627 5626 5623 5621 5617 5614 5609 5604 5600 5595 5592 5591 5591 5589 5588 5587 5587 5586 5586 5586 5585 5585 5585 5585 5586 5586 5587 5587 5587 5586 5585 5584 5583 5582 5580 5578 5575 5573 5571 5569
5647 5641 5636 5632 5629 5626 5624 5621 5617 5614 5609 5604 5599 5595 5593 5592 5590 5587 5585 5584 5583 5582 5581 5580 5580 5580 5581 5582 5583 5583 5583 5582 5581 5580 5578 5576 5575 5573 5570 5568 5566 5564 5562
5651 5646 5640 5637 5633 5629 5628 5624 5620 5616 5612 5607 5603 5599 5596 5594 5591 5589 5587 5585 5583 5581 5579 5578 5578 5578 5579 5580 5581 5580 5580 5579 5577 5575 5572 5570 5568 5566 5563 5560 5558 5556 5554
5655 5649 5644 5641 5637 5633 5629 5625 5622 5618 5615 5611 5607 5603 5600 5597 5594 5591 5588 5586 5584 5581 5579 5578 5578 5578 5579 5579 5579 5578 5575 5574 5573 5572 5569 5566 5563 5560 5558 5555 5552 5549 5546
5657 5652 5648 5644 5639 5635 5631 5627 5624 5621 5617 5613 5609 5606 5603 5601 5597 5594 5591 5589 5586 5583 5581 5580 5579 5579 5578 5578 5576 5575 5574 5573 5572 5569 5566 5562 5558 5555 5552 5549 5545 5542 5539
5659 5654 5650 5646 5642 5638 5634 5631 5628 5623 5619 5615 5611 5609 5606 5603 5600 5597 5595 5593 5590 5587 5585 5583 5581 5579 5577 5576 5575 5575 5574 5573 5570 5566 5561 5557 5553 5549 5545 5542 5539 5536 5533